Terug naar catalogus

OPS 4682 DEB

ActiefPO
NORAD 55262·DEBRIS·🇺🇸 United States

Gelanceerd Apr 3, 1965 vanaf Vandenberg Space Force Base

Loading…

Volgende Passages (komende 24 uur)

TLE

VersSource: Space-Track

Epoch: Sep 11, 2026, 07:19 UTC

1 55262U 65027HN  26254.30527802  .00000237  00000-0  80428-3 0  9993
2 55262  90.2553  13.5432 0028277 267.8960  91.8922 12.96352811514063

Volg OPS 4682 DEB in realtime met AllMySat

Download on the App Store